DELTA 1 DEB, 7200

Orbit data source: Space-Track

DELTA 1 DEB, 7200 is space debris in SSO originally from a launch on Tue, 06 Nov 1973 UTC launched from the Air Force Western Test Range (AFWTR). Debris objects in space refer to the collection of defunct objects orbiting the Earth. Examples of debris include non-operational satellites, rocket bodies, and fragments generated from explosions, collisions, or faulty payload assembly.

Loading next visibility...
Identifier
7200, 1973-086FJ
Orbit
SSO
Country
Flag of USUS
Related business
Manufacturer
Unknown
Mission
Spacecraft
Bus & Motor
Unknown
Mass
Unknown
Launch date (UTC)
1973-11-06 (53 years ago)
Launch vehicle
Unknown
Launch site
Air Force Western Test Range (AFWTR)
Object type
Payload
Rocket body
Debris
Shape & HBR
Unknown shape, 0.1 m
Radar Cross Section
Medium (>0.1 m² and <1 m²)

Expand to show TLE details & history
Last TLE update: 10 hours ago

TLE from 10 hours ago
0 DELTA 1 DEB
1 07200U 73086FJ  26263.46746664  .00000417  00000-0  48971-2 0  9998
2 07200 102.4025 243.4201 0292353 189.1072 300.5411 12.01990757313757
Epoch: 2026-09-20T11:13Z
TLE epoch observation values (Epoch: 2026-09-20T11:13:09.117Z)
Latitude
51.62663°
Longitude
-88.18543°
Altitude
1,565.632 km
Speed
7.14 km/s
True Right ascension
05h 17m 51s
True Declination
51° 28' 34"
Sunlit
Object was in daylight at epoch
Visualization orbit readout
Latitude
Unknown
Longitude
Unknown
Altitude
Unknown
Speed
Unknown
Apparent Right ascension
Unknown
Apparent Declination
Unknown
Sunlit
N/A
Visualization observer readout
Local Sidereal Time
14:01:04
Azimuth
Unknown
Elevation
Unknown
Doppler factor
Unknown
Orbital elements
Apogee altitude
1,904.883 km
Perigee altitude
1,434.327 km
Semi-major axis
8,047.742 km
Eccentricity
0.02924
Inclination
102.4025°
RAAN
243.4201°
Arg. of periapsis
189.1072°
True anomaly
297.6025°
Mean anomaly
300.5411°
Eccentric anomaly
299.07716°
Mean motion
3.0063 °/min
Orbital period
119.75 mins
BSTAR
0.0048971
Loading maneuver chart data...
Computing Atmospheric mass density...
Loading historical data...
Loading historical data...
Loading historical data...
Loading historical data...
Loading historical data...
Loading historical data...
Loading historical data...

Documentation

Showing up to 5 results
|